www.pogodaiklimat.ru

ПОГОДА в Форт Леонард Вуд, MO

  • Прогноз погоды в Форт Леонард Вуд
  • Монитор погоды в Форт Леонард Вуд
  • Климат в Форт Леонард Вуд

АРХИВ ПОГОДЫ в Форт Леонард Вуд

Время (UTC), дата Ветер
(напр.,м/с)
 
Видим.   Явления Облачность Т
(С)
Тd
(С)
f
(%)
Тe
(С)
Тes
(С)
Комфортность

P
(гПа)

Po
(гПа)
Тmin
(С)
Tmax
(С)
R
(мм)
SD
(см)
16:11 21.08 С  16 км    8/8 840 м  +30.0  +23.0  66  +40  +42  очень
душно 
1017.4  976.3         
16:36 21.08 СЗ  16 км    8/5 810 м
[средняя] 
+30.0  +23.0  66  +40  +45  очень
душно 
1017.4  976.3         
16:56 21.08 С  16 км    2/0 5400 м
[средняя] 
+30.2  +23.8  69  +42  +54  опасность
перегрева 
1017.4  976.3  +21.2  +30.7     
17:56 21.08   16 км    ясно  +30.6  +22.7  63  +40  +65  опасность
солнечного
удара 
1017.0  975.9         
18:56 21.08   16 км    ясно  +31.5  +23.0  61  +42  +65  опасность
перегрева 
1015.6  974.6         
19:56 21.08   16 км    ясно  +31.3  +22.8  61  +41  +61  опасность
перегрева 
1014.6  973.7         
20:56 21.08   16 км    2/2 1050 м  +31.8  +23.0  60  +42  +54  опасность
перегрева 
1014.3  973.3         
21:56 21.08   16 км    8/8 1050 м  +30.9  +23.5  65  +42  +44  опасность
перегрева 
1014.3  973.3         
22:56 21.08 С  16 км    2/2 1140 м  +29.7  +24.5  74  +42  +44  опасность
перегрева 
1013.3  972.4  +29.6  +31.8     
23:54 21.08 Ю  6
{13} 
16 км  гроза  8/8 720 м  +27.0  +21.0  70  +34  +34  очень
душно 
  972.4         
23:56 21.08 Ю  6
{13} 
16 км  гроза  8/8 720 м  +27.3  +20.6  67  +34  +34  очень
душно 
  972.7         
00:00 22.08 Ю  7
{13} 
16 км  гроза со слабым дождем  8/8 720 м  +27.0  +20.0  66  +33  +33  очень
душно 
  973.0         
00:05 22.08 ЮЗ  7
{11} 
13 км  гроза с сильным дождем  8/8 720 м  +26.0  +21.0  74  +33  +33  очень
душно 
  973.3         
00:09 22.08 Ю  7
{12} 
4 км  гроза с сильным дождем  10/10 660 м  +24.0  +20.0  78  +29  +29  душно    973.0         
00:14 22.08 Ю  6
{12} 
2 км  гроза с сильным дождем  10/10 720 м  +23.0  +20.0  83  +30  +30  очень
душно 
  973.7         
00:29 22.08 ЮЗ  5
{8} 
1 км  гроза с сильным дождем, дымка  10/10 750 м  +22.0  +21.0  94  +28  +28  душно    975.0         
00:55 22.08 ЮВ  3 км  гроза с дождем, дымка  10/10 870 м  +22.0  +21.0  94  +28  +28  душно    975.0         
00:56 22.08 ЮВ  4 км  гроза с дождем, дымка  10/10 870 м  +21.7  +20.7  94  +28  +28  душно    975.0         
01:01 22.08 ЮВ  8 км  гроза со слабым дождем, дымка  10/10 990 м  +22.0  +20.0  88  +28  +28  душно    975.3         
01:07 22.08 ЮВ  10 км  дождь, дымка, гроза  10/10 870 м  +22.0  +20.0  88  +28  +28  душно    975.3         
01:23 22.08 В  16 км  гроза со слабым дождем  10/10 900 м  +22.0  +21.0  94  +28  +28  душно    975.0         
01:38 22.08 СВ  16 км  слабая морось  5/5 1350 м
[средняя] 
+22.0  +20.0  88  +28  +28  душно  1016.8  975.6         
01:56 22.08 С  13 км  дождь, гроза  8/8 150 м  +21.5  +20.6  95  +27  +27  душно  1016.8  975.6      43.4   
02:27 22.08 В  16 км    8/0 2100 м
[средняя] 
+21.0  +20.0  94  +26  +26  душно  1015.7  974.6         
02:35 22.08 ЮВ  16 км  гроза  8/0 2100 м
[средняя] 
+22.0  +20.0  88  +28  +28  душно  1016.0  975.0         
02:39 22.08 В  16 км  гроза, слабая морось  8/5 1500 м
[средняя] 
+22.0  +20.0  88  +28  +28  душно  1016.3  975.3         
02:56 22.08 СЗ  4
{8} 
16 км  гроза со слабым дождем  10/8 1380 м
[средняя] 
+21.3  +20.3  94  +26  +26  душно  1017.8  976.6         
03:19 22.08 В  13 км  слабый дождь  10/10 1800 м  +21.0  +20.0  94  +26  +26  душно  1016.4  975.3         
03:56 22.08 СЗ  4
{11} 
16 км  слабый дождь  10/2 1290 м
[средняя] 
+20.8  +19.8  94  +26  +26  душно  1017.7  976.6         
04:56 22.08 ЮЗ  8 км  слабый дождь, дымка  10/8 1800 м
[средняя] 
+20.5  +19.8  96  +25  +25  комфорт  1017.7  976.6  +20.4  +29.6  50.8   
05:15 22.08 Ю  14 км  гроза с дождем  10/0 2250 м
[средняя] 
+21.0  +20.0  94  +26  +26  душно  1017.8  976.6         
05:40 22.08 Ю  11 км  слабый дождь  10/10 1950 м  +21.0  +20.0  94  +26  +26  душно  1017.0  975.9         
05:56 22.08 ЮВ  13 км  слабый дождь  8/0 2100 м
[средняя] 
+20.5  +20.0  97  +25  +25  комфорт  1015.7  974.6         
06:46 22.08 ЮВ  16 км    2/0 2700 м
[средняя] 
+20.0  +19.0  94  +23  +23  комфорт  1014.7  973.7         
06:56 22.08 ЮВ  16 км    5/0 5100 м
[средняя] 
+20.3  +19.6  96  +24  +24  комфорт  1014.3  973.3         
07:56 22.08 Ю  16 км    10/0 3900 м
[средняя] 
+20.1  +19.4  96  +24  +24  комфорт  1013.3  972.4      5.1   
08:56 22.08   16 км    10/0 3900 м
[средняя] 
+20.2  +19.5  96  +24  +24  комфорт  1014.0  973.0         
09:56 22.08 З  16 км    10/8 180 м
[средняя] 
+20.2  +19.7  97  +24  +24  комфорт  1015.4  974.3         
10:47 22.08   16 км  слабая морось  10/10 1200 м  +20.0  +20.0  100  +23  +23  комфорт  1016.4  975.3         
10:56 22.08 ЮЗ  16 км  слабая морось  10/10 150 м  +20.4  +19.9  97  +25  +25  комфорт  1016.4  975.3  +20.0  +20.6  5.1   
11:01 22.08   16 км  слабая морось  10/10 240 м  +20.0  +20.0  100  +23  +23  комфорт  1016.4  975.3         
11:02 22.08   16 км    10/10 240 м  +20.0  +20.0  100  +23  +23  комфорт  1016.4  975.3         
11:07 22.08   16 км    10/10 240 м  +20.0  +20.0  100  +23  +23  комфорт  1016.4  975.3         
11:28 22.08   16 км    10/10 240 м  +21.0  +20.0  94  +26  +26  душно  1016.1  975.0         
11:31 22.08 СЗ  13 км  дождь  10/10 240 м  +21.0  +20.0  94  +27  +27  душно  1016.1  975.0         
11:41 22.08   3 км  дождь, дымка  10/10 240 м  +20.0  +20.0  100  +23  +23  комфорт  1016.1  975.0         
11:46 22.08   5 км  слабый дождь, дымка  10/10 240 м  +20.0  +20.0  100  +23  +23  комфорт  1016.1  975.0         
11:56 22.08   8 км  слабый дождь, дымка  8/8 990 м  +20.4  +20.1  98  +24  +24  комфорт  1015.8  974.6         

 

Местоположение метеостанции Waynesville - St. Robert Regional Forney Field Airport: широта 37.7333 долгота -92.1333 высота над уровнем моря 353 м.

В архиве по умолчанию представлена погода в Форт Леонард Вуд за последние 1-2 суток. Обновление информации о фактической погоде в базе происходит ежечасно! Архивные данные за месяц целиком и за предыдущие месяцы Вы можете получить, выбрав интересующий диапазон дат из раскрывающегося списка и нажав кнопку "Ввод!".

Внимание! Архив погоды МЕТАР в базе сайта хранится не более 60 дней. Нет смысла пытаться выбрать более раннюю дату.

Внимание! Время в таблицах - всемирное. Для получения местного времени необходимо прибавить поправку, которая в Форт Леонард Вуд равна -6 ч.

Ветер - указаны скорость ветра в м/с и направление, откуда дует ветер: С - северный, СВ - северо-восточный, В - восточный, ЮВ - юго-восточный, Ю - южный, ЮЗ - юго-западный, З - западный, СЗ - северо-западный.
Видимость - горизонтальная дальность видимости в метрах или километрах. При видимости от 1 до 10 км при отсутствии осадков обычно наблюдается дымка, при ухудшении видимости до 1 км и менее - туман. В сухую погоду видимость может ухудшаться дымом, пылью или мглою.
Атмосферные явления - указаны явления, наблюдавшиеся в указанный момент времени.
Облачность - указаны через наклонную черту верхняя и нижняя облачность в баллах и высота нижней границы облаков в метрах. Внимание: облачность, как и прочие метеорологические величины в США измеряются автоматическими метеостанциями. Указанные значения в баллах носят условный характер и показывают процент времени, в течение которого, в среднем, лазерный луч высотомера отражался от облаков обратно.
T - Температура воздуха - температура, измеренная на высоте 2 м над землей.
Td - Температура точки росы - температура, при понижении до которой содержащийся в воздухе водяной пар достигнет насыщения.
f - Относительная влажность воздуха - влажноcть воздуха, измеренная на высоте 2 м над землей.
Te - Эффективная температура - температура, которую ощущает одетый по сезону человек в тени. Характеристика душности погоды. При расчете учитывается влияние влажности воздуха и скорости ветра на теплоощущения человека.
Tes - Эффективная температура на солнце - температура, которую ощущает человек, с поправкой на солнечный нагрев. Характеристика знойности погоды. Зависит от высоты солнца над горизонтом, облачности и скорости ветра. Ночью, в пасмурную погоду, а также при ветре 12 м/с и более поправка равна нулю.
P - Атмосферное давление - приведенное к уровню моря атмосферное давление.
Po - Атмосферное давление - измеренное на уровне метеостанции атмосферное давление.
Tmin - Минимальная температура - минимум температуры воздуха на высоте 2 м над землей.
Tmax - Максимальная температура - максимум температуры воздуха на высоте 2 м над землей.
R - Количество осадков - Количество выпавших осадков за 3 или 6 часов, мм.
SD - Снежный покров - Высота снежного покрова, см.